Accueil
METAR-TAF:

METAR-TAF

Aéroports :

Goeree Le, Pays-Bas

Plate-forme pétrolière

latitude: 51-55-33N, longitude: 3-40-12E, altitude: 19 m

Observation

Le bulletin a été fait il y a 22 minutes, à 18:55 UTC
Vent 34 kt de nord/nord-est
Température 4°C
Humidité 81%
Pression 983 hPa
Visibilité 10 km ou plus
bruine, pluie

METAR: EHSC 111855Z AUTO 03034KT 9999 DZRA ///////// 04/01 Q0983 W08/H25

Heure: 20:17 (19:17 UTC)


TAF: absent

Observations et prévisions météorologiques de plus de 4000 aéroports (messages METAR et TAF).

Les stations disponibles sont représentées par des disques jaunes et rouges sur la carte.

Passer la souris dessus pour voir le nom de la station.

Cliquer dessus pour voir les observations et prévisions météorologiques.

Pour changer de carte: cliquez sur les boutons verts avec une croix noire pour zoomer, sur le bouton vert avec un tiret pour effectuer un zoom arrière, ou sur les flèches vertes pour les cartes adjacentes.


METAR-TAF: